Time,TemperatureF,DewpointF,PressureIn,WindDirection,WindDirectionDegrees,WindSpeedMPH,WindSpeedGustMPH,Humidity,HourlyPrecipIn,Conditions,Clouds,dailyrainin,SoftwareType,DateUTC
2013-03-12 00:14:00,44.6,44.1,29.95,ESE,112,0.0,-999.0,98,-99.99,,,0.00,Acu-Link.com,2013-03-12 07:14:00,
2013-03-12 00:29:00,44.8,44.3,29.95,ESE,112,0.0,-999.0,98,-99.99,,,0.00,Acu-Link.com,2013-03-12 07:29:00,
2013-03-12 00:44:00,43.7,43.2,29.95,ESE,112,0.0,-999.0,98,-99.99,,,0.00,Acu-Link.com,2013-03-12 07:44:00,
2013-03-12 00:59:00,43.3,42.8,29.95,East,90,0.0,-999.0,98,-99.99,,,0.00,Acu-Link.com,2013-03-12 07:59:00,
2013-03-12 01:14:00,43.5,43.0,29.95,East,90,0.0,-999.0,98,-99.99,,,0.00,Acu-Link.com,2013-03-12 08:14:00,
2013-03-12 01:29:00,43.0,42.5,29.95,East,90,0.0,-999.0,98,-99.99,,,0.00,Acu-Link.com,2013-03-12 08:29:00,
2013-03-12 01:44:00,42.3,41.8,29.95,East,90,0.0,-999.0,98,-99.99,,,0.00,Acu-Link.com,2013-03-12 08:44:00,
2013-03-12 02:00:00,42.3,41.8,29.95,East,90,0.0,-999.0,98,-99.99,,,0.00,Acu-Link.com,2013-03-12 09:00:00,
2013-03-12 02:15:00,41.5,41.0,29.95,South,180,0.0,-999.0,98,-99.99,,,0.00,Acu-Link.com,2013-03-12 09:15:00,
2013-03-12 02:30:00,41.5,41.0,29.95,SSE,157,0.0,-999.0,98,-99.99,,,0.00,Acu-Link.com,2013-03-12 09:30:00,
2013-03-12 02:45:00,41.9,41.4,29.95,SSE,157,0.0,-999.0,98,-99.99,,,0.00,Acu-Link.com,2013-03-12 09:45:00,
2013-03-12 03:00:00,41.5,41.0,29.95,SSE,157,0.0,-999.0,98,-99.99,,,0.00,Acu-Link.com,2013-03-12 10:00:00,
2013-03-12 03:15:00,40.8,40.3,29.94,ENE,67,0.0,-999.0,98,-99.99,,,0.00,Acu-Link.com,2013-03-12 10:15:00,
2013-03-12 03:30:00,41.0,40.5,29.94,SSE,157,0.0,-999.0,98,-99.99,,,0.00,Acu-Link.com,2013-03-12 10:30:00,
2013-03-12 03:45:00,40.1,39.6,29.93,SSW,202,0.0,-999.0,98,-99.99,,,0.00,Acu-Link.com,2013-03-12 10:45:00,
2013-03-12 04:00:00,40.3,39.8,29.93,SSE,157,0.0,-999.0,98,-99.99,,,0.00,Acu-Link.com,2013-03-12 11:00:00,
2013-03-12 04:16:00,39.9,39.4,29.93,SE,135,0.0,-999.0,98,-99.99,,,0.00,Acu-Link.com,2013-03-12 11:16:00,
2013-03-12 05:01:00,39.2,38.7,29.93,SE,135,0.0,-999.0,98,-99.99,,,0.00,Acu-Link.com,2013-03-12 12:01:00,
2013-03-12 05:31:00,39.0,38.5,29.91,SE,135,0.0,-999.0,98,-99.99,,,0.00,Acu-Link.com,2013-03-12 12:31:00,
2013-03-12 05:46:00,38.5,38.0,29.91,NNE,22,0.0,-999.0,98,-99.99,,,0.00,Acu-Link.com,2013-03-12 12:46:00,
2013-03-12 06:01:00,38.1,37.6,29.92,South,180,0.0,-999.0,98,-99.99,,,0.00,Acu-Link.com,2013-03-12 13:01:00,
2013-03-12 06:16:00,38.1,37.6,29.91,SW,225,0.0,-999.0,98,-99.99,,,0.00,Acu-Link.com,2013-03-12 13:16:00,
2013-03-12 06:47:00,37.9,37.4,29.92,South,180,0.0,-999.0,98,-99.99,,,0.00,Acu-Link.com,2013-03-12 13:47:00,
2013-03-12 07:02:00,38.1,37.6,29.92,SE,135,0.0,-999.0,98,-99.99,,,0.00,Acu-Link.com,2013-03-12 14:02:00,
2013-03-12 07:17:00,37.9,37.4,29.93,South,180,0.0,-999.0,98,-99.99,,,0.00,Acu-Link.com,2013-03-12 14:17:00,
2013-03-12 07:47:00,38.7,38.2,29.93,South,180,0.0,-999.0,98,-99.99,,,0.00,Acu-Link.com,2013-03-12 14:47:00,
2013-03-12 08:02:00,39.6,39.1,29.94,SW,225,0.0,-999.0,98,-99.99,,,0.00,Acu-Link.com,2013-03-12 15:02:00,
2013-03-12 08:17:00,41.5,41.0,29.94,NE,45,0.0,-999.0,98,-99.99,,,0.00,Acu-Link.com,2013-03-12 15:17:00,
2013-03-12 08:32:00,46.6,46.1,29.96,North,0,2.2,-999.0,98,-99.99,,,0.00,Acu-Link.com,2013-03-12 15:32:00,
2013-03-12 08:47:00,53.6,53.0,29.95,SW,225,0.0,-999.0,98,-99.99,,,0.00,Acu-Link.com,2013-03-12 15:47:00,
2013-03-12 09:03:00,59.9,59.3,29.95,SSW,202,0.0,-999.0,98,-99.99,,,0.00,Acu-Link.com,2013-03-12 16:03:00,
2013-03-12 09:18:00,66.2,65.6,29.96,ESE,112,0.0,-999.0,98,-99.99,,,0.00,Acu-Link.com,2013-03-12 16:18:00,
2013-03-12 09:33:00,70.9,70.3,29.96,ENE,67,1.7,-999.0,98,-99.99,,,0.00,Acu-Link.com,2013-03-12 16:33:00,
2013-03-12 09:48:00,75.0,64.1,29.96,ESE,112,0.0,-999.0,69,-99.99,,,0.00,Acu-Link.com,2013-03-12 16:48:00,
2013-03-12 10:03:00,78.8,-29.6,29.96,SW,225,1.7,-999.0,1,-99.99,,,0.00,Acu-Link.com,2013-03-12 17:03:00,
2013-03-12 10:18:00,81.0,-28.2,29.96,NNE,22,1.7,-999.0,1,-99.99,,,0.00,Acu-Link.com,2013-03-12 17:18:00,
2013-03-12 10:33:00,84.2,-26.3,29.96,ESE,112,0.0,-999.0,1,-99.99,,,0.00,Acu-Link.com,2013-03-12 17:33:00,
2013-03-12 10:48:00,87.8,-24.2,29.96,SSW,202,0.0,-999.0,1,-99.99,,,0.00,Acu-Link.com,2013-03-12 17:48:00,
2013-03-12 11:03:00,89.4,-23.3,29.96,NE,45,1.1,-999.0,1,-99.99,,,0.00,Acu-Link.com,2013-03-12 18:03:00,
2013-03-12 11:19:00,90.1,-22.9,29.95,North,0,1.7,-999.0,1,-99.99,,,0.00,Acu-Link.com,2013-03-12 18:19:00,
2013-03-12 11:34:00,88.9,-23.6,29.96,North,0,2.2,-999.0,1,-99.99,,,0.00,Acu-Link.com,2013-03-12 18:34:00,
2013-03-12 11:49:00,89.6,-23.2,29.96,SW,225,2.2,-999.0,1,-99.99,,,0.00,Acu-Link.com,2013-03-12 18:49:00,
2013-03-12 12:04:00,88.2,-24.0,29.95,WNW,292,2.7,-999.0,1,-99.99,,,0.00,Acu-Link.com,2013-03-12 19:04:00,
2013-03-12 12:19:00,85.6,-25.5,29.95,NNE,22,2.2,-999.0,1,-99.99,,,0.00,Acu-Link.com,2013-03-12 19:19:00,
2013-03-12 12:34:00,85.8,-25.4,29.96,WNW,292,2.7,-999.0,1,-99.99,,,0.00,Acu-Link.com,2013-03-12 19:34:00,
2013-03-12 12:49:00,82.4,-27.4,29.94,ENE,67,3.7,-999.0,1,-99.99,,,0.00,Acu-Link.com,2013-03-12 19:49:00,
2013-03-12 13:04:00,83.5,-26.8,29.95,SSE,157,4.2,-999.0,1,-99.99,,,0.00,Acu-Link.com,2013-03-12 20:04:00,
2013-03-12 13:19:00,82.6,-27.3,29.93,SSE,157,5.8,-999.0,1,-99.99,,,0.00,Acu-Link.com,2013-03-12 20:19:00,
2013-03-12 13:35:00,82.8,-27.2,29.93,West,270,3.7,-999.0,1,-99.99,,,0.00,Acu-Link.com,2013-03-12 20:35:00,
2013-03-12 13:50:00,81.9,-27.7,29.92,NNE,22,2.7,-999.0,1,-99.99,,,0.00,Acu-Link.com,2013-03-12 20:50:00,
2013-03-12 14:05:00,82.8,-27.2,29.91,SW,225,4.2,-999.0,1,-99.99,,,0.00,Acu-Link.com,2013-03-12 21:05:00,
2013-03-12 14:20:00,83.3,-26.9,29.91,ESE,112,2.7,-999.0,1,-99.99,,,0.00,Acu-Link.com,2013-03-12 21:20:00,
2013-03-12 14:35:00,82.8,-27.2,29.90,WSW,247,3.2,-999.0,1,-99.99,,,0.00,Acu-Link.com,2013-03-12 21:35:00,
2013-03-12 14:50:00,81.3,-28.1,29.91,NW,315,3.7,-999.0,1,-99.99,,,0.00,Acu-Link.com,2013-03-12 21:50:00,
2013-03-12 15:05:00,83.8,-26.6,29.90,SW,225,1.7,-999.0,1,-99.99,,,0.00,Acu-Link.com,2013-03-12 22:05:00,
2013-03-12 15:20:00,82.4,-27.4,29.89,ESE,112,3.2,-999.0,1,-99.99,,,0.00,Acu-Link.com,2013-03-12 22:20:00,
2013-03-12 15:35:00,82.0,-27.7,29.89,NNE,22,3.7,-999.0,1,-99.99,,,0.00,Acu-Link.com,2013-03-12 22:35:00,
2013-03-12 15:51:00,81.7,-27.8,29.89,NNE,22,3.7,-999.0,1,-99.99,,,0.00,Acu-Link.com,2013-03-12 22:51:00,
2013-03-12 16:06:00,81.3,-28.1,29.89,WNW,292,3.2,-999.0,1,-99.99,,,0.00,Acu-Link.com,2013-03-12 23:06:00,
2013-03-12 16:51:00,76.8,-30.7,29.90,NNW,337,3.2,-999.0,1,-99.99,,,0.00,Acu-Link.com,2013-03-12 23:51:00,
2013-03-12 17:06:00,77.7,-30.2,29.89,WSW,247,4.7,-999.0,1,-99.99,,,0.00,Acu-Link.com,2013-03-13 00:06:00,
2013-03-12 17:21:00,76.1,-31.2,29.89,WNW,292,2.2,-999.0,1,-99.99,,,0.00,Acu-Link.com,2013-03-13 00:21:00,
2013-03-12 17:37:00,78.1,-30.0,29.91,NNW,337,2.7,-999.0,1,-99.99,,,0.00,Acu-Link.com,2013-03-13 00:37:00,
2013-03-12 17:52:00,77.0,-30.6,29.90,SSW,202,1.7,-999.0,1,-99.99,,,0.00,Acu-Link.com,2013-03-13 00:52:00,
2013-03-12 18:07:00,75.2,-31.7,29.90,NE,45,1.7,-999.0,1,-99.99,,,0.00,Acu-Link.com,2013-03-13 01:07:00,
2013-03-12 18:52:00,67.8,56.8,29.91,SSW,202,0.0,-999.0,68,-99.99,,,0.00,Acu-Link.com,2013-03-13 01:52:00,
2013-03-12 19:07:00,65.1,-37.8,29.92,SSW,202,0.0,-999.0,1,-99.99,,,0.00,Acu-Link.com,2013-03-13 02:07:00,
2013-03-12 19:22:00,63.0,62.4,29.91,South,180,0.0,-999.0,98,-99.99,,,0.00,Acu-Link.com,2013-03-13 02:22:00,
2013-03-12 19:37:00,61.2,60.6,29.92,ESE,112,0.0,-999.0,98,-99.99,,,0.00,Acu-Link.com,2013-03-13 02:37:00,
2013-03-12 19:53:00,59.9,59.3,29.93,East,90,0.0,-999.0,98,-99.99,,,0.00,Acu-Link.com,2013-03-13 02:53:00,
2013-03-12 20:08:00,58.8,58.2,29.93,SE,135,0.0,-999.0,98,-99.99,,,0.00,Acu-Link.com,2013-03-13 03:08:00,
2013-03-12 20:23:00,57.7,57.1,29.93,ESE,112,0.0,-999.0,98,-99.99,,,0.00,Acu-Link.com,2013-03-13 03:23:00,
2013-03-12 20:38:00,56.8,56.2,29.94,ESE,112,0.0,-999.0,98,-99.99,,,0.00,Acu-Link.com,2013-03-13 03:38:00,
2013-03-12 20:53:00,56.1,55.5,29.95,ESE,112,0.0,-999.0,98,-99.99,,,0.00,Acu-Link.com,2013-03-13 03:53:00,
2013-03-12 21:08:00,55.0,54.4,29.94,SE,135,0.0,-999.0,98,-99.99,,,0.00,Acu-Link.com,2013-03-13 04:08:00,
2013-03-12 21:23:00,54.3,53.7,29.94,SSE,157,0.0,-999.0,98,-99.99,,,0.00,Acu-Link.com,2013-03-13 04:23:00,
2013-03-12 21:39:00,53.1,52.5,29.95,SE,135,0.0,-999.0,98,-99.99,,,0.00,Acu-Link.com,2013-03-13 04:39:00,
2013-03-12 21:54:00,52.2,51.7,29.96,SE,135,0.0,-999.0,98,-99.99,,,0.00,Acu-Link.com,2013-03-13 04:54:00,
2013-03-12 22:09:00,51.4,50.9,29.96,South,180,0.0,-999.0,98,-99.99,,,0.00,Acu-Link.com,2013-03-13 05:09:00,
2013-03-12 22:24:00,50.7,50.2,29.96,South,180,0.0,-999.0,98,-99.99,,,0.00,Acu-Link.com,2013-03-13 05:24:00,
2013-03-12 22:39:00,50.4,49.9,29.96,South,180,0.0,-999.0,98,-99.99,,,0.00,Acu-Link.com,2013-03-13 05:39:00,
2013-03-12 22:54:00,49.8,49.3,29.97,South,180,0.0,-999.0,98,-99.99,,,0.00,Acu-Link.com,2013-03-13 05:54:00,
2013-03-12 23:09:00,49.1,48.6,29.97,South,180,0.0,-999.0,98,-99.99,,,0.00,Acu-Link.com,2013-03-13 06:09:00,
2013-03-12 23:24:00,48.6,48.1,29.97,South,180,0.0,-999.0,98,-99.99,,,0.00,Acu-Link.com,2013-03-13 06:24:00,
2013-03-12 23:40:00,48.0,47.5,29.96,South,180,0.0,-999.0,98,-99.99,,,0.00,Acu-Link.com,2013-03-13 06:40:00,
2013-03-12 23:55:00,47.7,47.2,29.96,South,180,0.0,-999.0,98,-99.99,,,0.00,Acu-Link.com,2013-03-13 06:55:00,